Date_Time,Julian_Date,Latitude,Longitude,Instrument_Depth,U,V,Speed,Direction
(yyyy-mm-dd hh:mn:ss UTC),(JD),(+ deg. North),(+ deg. East),(m),(cm/s),(cm/s),(cm/s),(deg True)
1982-08-10 19:00:00 UTC,2445192.291667,29.6650,-93.4789,0086,-6.89,-1.22,7.0000,260.0000
1982-08-10 19:30:00 UTC,2445192.312500,29.6650,-93.4789,0086,-5.67,-1.95,6.0000,251.0000
1982-08-10 20:00:00 UTC,2445192.333333,29.6650,-93.4789,0086,-5.98,-0.52,6.0000,265.0000
1982-08-10 20:30:00 UTC,2445192.354167,29.6650,-93.4789,0086,-6.76,1.81,7.0000,285.0000
1982-08-10 21:00:00 UTC,2445192.375000,29.6650,-93.4789,0086,-6.82,1.57,7.0000,283.0000
1982-08-10 21:30:00 UTC,2445192.395833,29.6650,-93.4789,0086,-3.99,-0.28,4.0000,266.0000
1982-08-10 22:00:00 UTC,2445192.416667,29.6650,-93.4789,0086,-4.99,0.26,5.0000,273.0000
1982-08-10 22:30:00 UTC,2445192.437500,29.6650,-93.4789,0086,-8.93,1.10,9.0000,277.0000
1982-08-10 23:00:00 UTC,2445192.458333,29.6650,-93.4789,0086,-9.99,0.52,10.0000,273.0000
1982-08-10 23:30:00 UTC,2445192.479167,29.6650,-93.4789,0086,-9.99,0.52,10.0000,273.0000
1982-08-11 00:00:00 UTC,2445192.500000,29.6650,-93.4789,0086,-7.97,0.70,8.0000,275.0000
1982-08-11 00:30:00 UTC,2445192.520833,29.6650,-93.4789,0086,-5.97,0.63,6.0000,276.0000
1982-08-11 01:00:00 UTC,2445192.541667,29.6650,-93.4789,0086,-6.98,0.49,7.0000,274.0000
1982-08-11 01:30:00 UTC,2445192.562500,29.6650,-93.4789,0086,-8.97,0.78,9.0000,275.0000
1982-08-11 02:00:00 UTC,2445192.583333,29.6650,-93.4789,0086,-7.96,0.84,8.0000,276.0000
1982-08-11 02:30:00 UTC,2445192.604167,29.6650,-93.4789,0086,-6.98,-0.49,7.0000,266.0000
1982-08-11 03:00:00 UTC,2445192.625000,29.6650,-93.4789,0086,-5.71,-1.85,6.0000,252.0000
1982-08-11 03:30:00 UTC,2445192.645833,29.6650,-93.4789,0086,-6.87,-1.34,7.0000,259.0000
1982-08-11 04:00:00 UTC,2445192.666667,29.6650,-93.4789,0086,-6.96,-0.73,7.0000,264.0000
1982-08-11 04:30:00 UTC,2445192.687500,29.6650,-93.4789,0086,-6.98,-0.49,7.0000,266.0000
1982-08-11 05:00:00 UTC,2445192.708333,29.6650,-93.4789,0086,-5.94,-0.84,6.0000,262.0000
1982-08-11 05:30:00 UTC,2445192.729167,29.6650,-93.4789,0086,-6.89,-1.22,7.0000,260.0000
1982-08-11 06:00:00 UTC,2445192.750000,29.6650,-93.4789,0086,-6.98,-0.49,7.0000,266.0000
1982-08-11 06:30:00 UTC,2445192.770833,29.6650,-93.4789,0086,-7.00,-0.24,7.0000,268.0000
1982-08-11 07:00:00 UTC,2445192.791667,29.6650,-93.4789,0086,-8.00,-0.14,8.0000,269.0000
1982-08-11 07:30:00 UTC,2445192.812500,29.6650,-93.4789,0086,-7.98,0.56,8.0000,274.0000
1982-08-11 08:00:00 UTC,2445192.833333,29.6650,-93.4789,0086,-6.97,0.61,7.0000,275.0000
1982-08-11 08:30:00 UTC,2445192.854167,29.6650,-93.4789,0086,-6.00,-0.21,6.0000,268.0000
1982-08-11 09:00:00 UTC,2445192.875000,29.6650,-93.4789,0086,-7.00,-0.12,7.0000,269.0000
1982-08-11 09:30:00 UTC,2445192.895833,29.6650,-93.4789,0086,-8.95,0.94,9.0000,276.0000
1982-08-11 10:00:00 UTC,2445192.916667,29.6650,-93.4789,0086,-7.92,1.11,8.0000,278.0000
1982-08-11 10:30:00 UTC,2445192.937500,29.6650,-93.4789,0086,-7.88,1.39,8.0000,280.0000
1982-08-11 11:00:00 UTC,2445192.958333,29.6650,-93.4789,0086,-7.79,1.80,8.0000,283.0000
1982-08-11 11:30:00 UTC,2445192.979167,29.6650,-93.4789,0086,-6.98,0.49,7.0000,274.0000
1982-08-11 12:00:00 UTC,2445193.000000,29.6650,-93.4789,0086,-5.96,-0.73,6.0000,263.0000
1982-08-11 12:30:00 UTC,2445193.020833,29.6650,-93.4789,0086,-5.99,0.42,6.0000,274.0000
1982-08-11 13:00:00 UTC,2445193.041667,29.6650,-93.4789,0086,-5.91,1.04,6.0000,280.0000
1982-08-11 13:30:00 UTC,2445193.062500,29.6650,-93.4789,0086,-5.91,-1.04,6.0000,260.0000
1982-08-11 14:00:00 UTC,2445193.083333,29.6650,-93.4789,0086,-5.80,-1.55,6.0000,255.0000
1982-08-11 14:30:00 UTC,2445193.104167,29.6650,-93.4789,0086,-8.00,-0.00,8.0000,270.0000
1982-08-11 15:00:00 UTC,2445193.125000,29.6650,-93.4789,0086,-7.94,0.97,8.0000,277.0000
1982-08-11 15:30:00 UTC,2445193.145833,29.6650,-93.4789,0086,-6.93,0.97,7.0000,278.0000
1982-08-11 16:00:00 UTC,2445193.166667,29.6650,-93.4789,0086,-6.85,1.46,7.0000,282.0000
1982-08-11 16:30:00 UTC,2445193.187500,29.6650,-93.4789,0086,-4.89,1.04,5.0000,282.0000
1982-08-11 17:00:00 UTC,2445193.208333,29.6650,-93.4789,0086,-3.98,-0.35,4.0000,265.0000
1982-08-11 17:30:00 UTC,2445193.229167,29.6650,-93.4789,0086,-2.46,-1.72,3.0000,235.0000
1982-08-11 18:00:00 UTC,2445193.250000,29.6650,-93.4789,0086,-1.60,-1.20,2.0000,233.0000
1982-08-11 18:30:00 UTC,2445193.270833,29.6650,-93.4789,0086,-2.85,-0.93,3.0000,252.0000
1982-08-11 19:00:00 UTC,2445193.291667,29.6650,-93.4789,0086,-3.53,-1.88,4.0000,242.0000
1982-08-11 19:30:00 UTC,2445193.312500,29.6650,-93.4789,0086,-3.60,-1.75,4.0000,244.0000
1982-08-11 20:00:00 UTC,2445193.333333,29.6650,-93.4789,0086,-4.97,-0.52,5.0000,264.0000
1982-08-11 20:30:00 UTC,2445193.354167,29.6650,-93.4789,0086,-6.00,0.21,6.0000,272.0000
1982-08-11 21:00:00 UTC,2445193.375000,29.6650,-93.4789,0086,-4.00,-0.00,4.0000,270.0000
1982-08-11 21:30:00 UTC,2445193.395833,29.6650,-93.4789,0086,-2.99,-0.21,3.0000,266.0000
1982-08-11 22:00:00 UTC,2445193.416667,29.6650,-93.4789,0086,-3.97,-0.49,4.0000,263.0000
1982-08-11 22:30:00 UTC,2445193.437500,29.6650,-93.4789,0086,-5.93,-0.94,6.0000,261.0000
1982-08-11 23:00:00 UTC,2445193.458333,29.6650,-93.4789,0086,-8.00,-0.28,8.0000,268.0000
1982-08-11 23:30:00 UTC,2445193.479167,29.6650,-93.4789,0086,-8.89,1.41,9.0000,279.0000
1982-08-12 00:00:00 UTC,2445193.500000,29.6650,-93.4789,0086,-5.96,0.73,6.0000,277.0000
1982-08-12 00:30:00 UTC,2445193.520833,29.6650,-93.4789,0086,-1.91,-0.58,2.0000,253.0000
1982-08-12 01:00:00 UTC,2445193.541667,29.6650,-93.4789,0086,-3.93,-0.76,4.0000,259.0000
1982-08-12 01:30:00 UTC,2445193.562500,29.6650,-93.4789,0086,-8.00,0.28,8.0000,272.0000
1982-08-12 02:00:00 UTC,2445193.583333,29.6650,-93.4789,0086,-6.89,1.22,7.0000,280.0000
1982-08-12 02:30:00 UTC,2445193.604167,29.6650,-93.4789,0086,-5.00,0.09,5.0000,271.0000
1982-08-12 03:00:00 UTC,2445193.625000,29.6650,-93.4789,0086,-4.92,-0.87,5.0000,260.0000
1982-08-12 03:30:00 UTC,2445193.645833,29.6650,-93.4789,0086,-6.00,-0.10,6.0000,269.0000
1982-08-12 04:00:00 UTC,2445193.666667,29.6650,-93.4789,0086,-5.99,0.42,6.0000,274.0000
1982-08-12 04:30:00 UTC,2445193.687500,29.6650,-93.4789,0086,-2.98,-0.37,3.0000,263.0000
1982-08-12 05:00:00 UTC,2445193.708333,29.6650,-93.4789,0086,-0.58,-1.91,2.0000,197.0000
1982-08-12 05:30:00 UTC,2445193.729167,29.6650,-93.4789,0086,-0.93,-2.85,3.0000,198.0000
1982-08-12 06:00:00 UTC,2445193.750000,29.6650,-93.4789,0086,-2.26,-1.97,3.0000,229.0000
1982-08-12 06:30:00 UTC,2445193.770833,29.6650,-93.4789,0086,-2.93,-0.62,3.0000,258.0000
1982-08-12 07:00:00 UTC,2445193.791667,29.6650,-93.4789,0086,-3.85,1.10,4.0000,286.0000
1982-08-12 07:30:00 UTC,2445193.812500,29.6650,-93.4789,0086,-3.24,2.35,4.0000,306.0000
1982-08-12 08:00:00 UTC,2445193.833333,29.6650,-93.4789,0086,-2.97,2.68,4.0000,312.0000
1982-08-12 08:30:00 UTC,2445193.854167,29.6650,-93.4789,0086,-3.43,2.06,4.0000,301.0000
1982-08-12 09:00:00 UTC,2445193.875000,29.6650,-93.4789,0086,-2.78,2.88,4.0000,316.0000
1982-08-12 09:30:00 UTC,2445193.895833,29.6650,-93.4789,0086,-2.65,4.24,5.0000,328.0000
1982-08-12 10:00:00 UTC,2445193.916667,29.6650,-93.4789,0086,-5.59,4.21,7.0000,307.0000
1982-08-12 10:30:00 UTC,2445193.937500,29.6650,-93.4789,0086,-9.14,4.07,10.0000,294.0000
1982-08-12 11:00:00 UTC,2445193.958333,29.6650,-93.4789,0086,-9.34,3.58,10.0000,291.0000
1982-08-12 11:30:00 UTC,2445193.979167,29.6650,-93.4789,0086,-8.40,3.23,9.0000,291.0000
1982-08-12 12:00:00 UTC,2445194.000000,29.6650,-93.4789,0086,-6.29,3.07,7.0000,296.0000
1982-08-12 12:30:00 UTC,2445194.020833,29.6650,-93.4789,0086,-3.89,3.15,5.0000,309.0000
1982-08-12 13:00:00 UTC,2445194.041667,29.6650,-93.4789,0086,-1.56,3.68,4.0000,337.0000
1982-08-12 13:30:00 UTC,2445194.062500,29.6650,-93.4789,0086,0.62,2.93,3.0000,12.0000
1982-08-12 14:00:00 UTC,2445194.083333,29.6650,-93.4789,0086,1.18,1.62,2.0000,36.0000
1982-08-12 14:30:00 UTC,2445194.104167,29.6650,-93.4789,0086,0.77,0.64,1.0000,50.0000
1982-08-12 15:00:00 UTC,2445194.125000,29.6650,-93.4789,0086,0.19,-0.98,1.0000,169.0000
1982-08-12 15:30:00 UTC,2445194.145833,29.6650,-93.4789,0086,-0.67,-2.92,3.0000,193.0000
1982-08-12 16:00:00 UTC,2445194.166667,29.6650,-93.4789,0086,-1.55,-2.57,3.0000,211.0000
1982-08-12 16:30:00 UTC,2445194.187500,29.6650,-93.4789,0086,-1.77,-0.94,2.0000,242.0000
1982-08-12 17:00:00 UTC,2445194.208333,29.6650,-93.4789,0086,-2.23,-2.01,3.0000,228.0000
1982-08-12 17:30:00 UTC,2445194.229167,29.6650,-93.4789,0086,-1.30,-3.78,4.0000,199.0000
1982-08-12 18:00:00 UTC,2445194.250000,29.6650,-93.4789,0086,-0.10,-3.00,3.0000,182.0000
1982-08-12 18:30:00 UTC,2445194.270833,29.6650,-93.4789,0086,-1.89,-2.33,3.0000,219.0000
1982-08-12 19:00:00 UTC,2445194.291667,29.6650,-93.4789,0086,-4.60,-1.95,5.0000,247.0000
1982-08-12 19:30:00 UTC,2445194.312500,29.6650,-93.4789,0086,-5.80,-1.55,6.0000,255.0000
1982-08-12 20:00:00 UTC,2445194.333333,29.6650,-93.4789,0086,-4.92,-0.87,5.0000,260.0000
1982-08-12 20:30:00 UTC,2445194.354167,29.6650,-93.4789,0086,-3.98,-0.35,4.0000,265.0000
1982-08-12 21:00:00 UTC,2445194.375000,29.6650,-93.4789,0086,-2.99,0.21,3.0000,274.0000
1982-08-12 21:30:00 UTC,2445194.395833,29.6650,-93.4789,0086,-2.88,0.83,3.0000,286.0000
1982-08-12 22:00:00 UTC,2445194.416667,29.6650,-93.4789,0086,-3.50,1.94,4.0000,299.0000
1982-08-12 22:30:00 UTC,2445194.437500,29.6650,-93.4789,0086,-2.83,2.83,4.0000,315.0000
1982-08-12 23:00:00 UTC,2445194.458333,29.6650,-93.4789,0086,-2.05,2.19,3.0000,317.0000
1982-08-12 23:30:00 UTC,2445194.479167,29.6650,-93.4789,0086,-2.52,1.63,3.0000,303.0000
1982-08-13 00:00:00 UTC,2445194.500000,29.6650,-93.4789,0086,-3.99,3.01,5.0000,307.0000
1982-08-13 00:30:00 UTC,2445194.520833,29.6650,-93.4789,0086,-3.08,3.94,5.0000,322.0000
1982-08-13 01:00:00 UTC,2445194.541667,29.6650,-93.4789,0086,-2.65,4.24,5.0000,328.0000
1982-08-13 01:30:00 UTC,2445194.562500,29.6650,-93.4789,0086,-3.28,2.29,4.0000,305.0000
1982-08-13 02:00:00 UTC,2445194.583333,29.6650,-93.4789,0086,-5.00,0.17,5.0000,272.0000
1982-08-13 02:30:00 UTC,2445194.604167,29.6650,-93.4789,0086,-6.00,-0.00,6.0000,270.0000
1982-08-13 03:00:00 UTC,2445194.625000,29.6650,-93.4789,0086,-6.96,0.73,7.0000,276.0000
1982-08-13 03:30:00 UTC,2445194.645833,29.6650,-93.4789,0086,-6.00,-0.10,6.0000,269.0000
1982-08-13 04:00:00 UTC,2445194.666667,29.6650,-93.4789,0086,-3.80,-1.24,4.0000,252.0000
1982-08-13 04:30:00 UTC,2445194.687500,29.6650,-93.4789,0086,-2.70,-1.32,3.0000,244.0000
1982-08-13 05:00:00 UTC,2445194.708333,29.6650,-93.4789,0086,-2.90,-0.78,3.0000,255.0000
1982-08-13 05:30:00 UTC,2445194.729167,29.6650,-93.4789,0086,-2.92,-0.67,3.0000,257.0000
1982-08-13 06:00:00 UTC,2445194.750000,29.6650,-93.4789,0086,-1.83,-0.81,2.0000,246.0000
1982-08-13 06:30:00 UTC,2445194.770833,29.6650,-93.4789,0086,-1.81,-0.85,2.0000,245.0000
1982-08-13 07:00:00 UTC,2445194.791667,29.6650,-93.4789,0086,-1.84,-0.78,2.0000,247.0000
1982-08-13 07:30:00 UTC,2445194.812500,29.6650,-93.4789,0086,-1.93,-0.52,2.0000,255.0000
1982-08-13 08:00:00 UTC,2445194.833333,29.6650,-93.4789,0086,-3.00,0.16,3.0000,273.0000
1982-08-13 08:30:00 UTC,2445194.854167,29.6650,-93.4789,0086,-2.96,0.47,3.0000,279.0000
1982-08-13 09:00:00 UTC,2445194.875000,29.6650,-93.4789,0086,-1.83,0.81,2.0000,294.0000
1982-08-13 09:30:00 UTC,2445194.895833,29.6650,-93.4789,0086,-1.26,1.55,2.0000,321.0000
1982-08-13 10:00:00 UTC,2445194.916667,29.6650,-93.4789,0086,-2.05,2.19,3.0000,317.0000
1982-08-13 10:30:00 UTC,2445194.937500,29.6650,-93.4789,0086,-2.97,2.68,4.0000,312.0000
1982-08-13 11:00:00 UTC,2445194.958333,29.6650,-93.4789,0086,-4.15,2.80,5.0000,304.0000
1982-08-13 11:30:00 UTC,2445194.979167,29.6650,-93.4789,0086,-4.57,2.03,5.0000,294.0000
1982-08-13 12:00:00 UTC,2445195.000000,29.6650,-93.4789,0086,-5.48,2.44,6.0000,294.0000
1982-08-13 12:30:00 UTC,2445195.020833,29.6650,-93.4789,0086,-4.46,4.01,6.0000,312.0000
1982-08-13 13:00:00 UTC,2445195.041667,29.6650,-93.4789,0086,-2.11,4.53,5.0000,335.0000
1982-08-13 13:30:00 UTC,2445195.062500,29.6650,-93.4789,0086,-1.04,3.86,4.0000,345.0000
1982-08-13 14:00:00 UTC,2445195.083333,29.6650,-93.4789,0086,-0.57,2.94,3.0000,349.0000
1982-08-13 14:30:00 UTC,2445195.104167,29.6650,-93.4789,0086,-0.83,2.88,3.0000,344.0000
1982-08-13 15:00:00 UTC,2445195.125000,29.6650,-93.4789,0086,-1.93,2.30,3.0000,320.0000
1982-08-13 15:30:00 UTC,2445195.145833,29.6650,-93.4789,0086,-2.57,1.55,3.0000,301.0000
1982-08-13 16:00:00 UTC,2445195.166667,29.6650,-93.4789,0086,-4.49,2.19,5.0000,296.0000
1982-08-13 16:30:00 UTC,2445195.187500,29.6650,-93.4789,0086,-4.76,1.55,5.0000,288.0000
1982-08-13 17:00:00 UTC,2445195.208333,29.6650,-93.4789,0086,-3.88,0.97,4.0000,284.0000
1982-08-13 17:30:00 UTC,2445195.229167,29.6650,-93.4789,0086,-3.68,1.56,4.0000,293.0000
1982-08-13 18:00:00 UTC,2445195.250000,29.6650,-93.4789,0086,-3.88,0.97,4.0000,284.0000
1982-08-13 18:30:00 UTC,2445195.270833,29.6650,-93.4789,0086,-3.99,0.21,4.0000,273.0000
1982-08-13 19:00:00 UTC,2445195.291667,29.6650,-93.4789,0086,-3.95,0.63,4.0000,279.0000
1982-08-13 19:30:00 UTC,2445195.312500,29.6650,-93.4789,0086,-2.95,0.52,3.0000,280.0000
1982-08-13 20:00:00 UTC,2445195.333333,29.6650,-93.4789,0086,-2.99,0.21,3.0000,274.0000
1982-08-13 20:30:00 UTC,2445195.354167,29.6650,-93.4789,0086,-3.91,0.83,4.0000,282.0000
1982-08-13 21:00:00 UTC,2445195.375000,29.6650,-93.4789,0086,-2.84,0.98,3.0000,289.0000
1982-08-13 21:30:00 UTC,2445195.395833,29.6650,-93.4789,0086,-1.98,0.28,2.0000,278.0000
1982-08-13 22:00:00 UTC,2445195.416667,29.6650,-93.4789,0086,-2.96,-0.47,3.0000,261.0000
1982-08-13 22:30:00 UTC,2445195.437500,29.6650,-93.4789,0086,-3.98,0.35,4.0000,275.0000
1982-08-13 23:00:00 UTC,2445195.458333,29.6650,-93.4789,0086,-3.83,1.17,4.0000,287.0000
1982-08-13 23:30:00 UTC,2445195.479167,29.6650,-93.4789,0086,-3.73,1.43,4.0000,291.0000
1982-08-14 00:00:00 UTC,2445195.500000,29.6650,-93.4789,0086,-4.78,1.46,5.0000,287.0000
1982-08-14 00:30:00 UTC,2445195.520833,29.6650,-93.4789,0086,-5.85,1.35,6.0000,283.0000
1982-08-14 01:00:00 UTC,2445195.541667,29.6650,-93.4789,0086,-5.82,1.45,6.0000,284.0000
1982-08-14 01:30:00 UTC,2445195.562500,29.6650,-93.4789,0086,-4.81,1.38,5.0000,286.0000
1982-08-14 02:00:00 UTC,2445195.583333,29.6650,-93.4789,0086,-4.89,1.04,5.0000,282.0000
1982-08-14 02:30:00 UTC,2445195.604167,29.6650,-93.4789,0086,-4.00,-0.14,4.0000,268.0000
1982-08-14 03:00:00 UTC,2445195.625000,29.6650,-93.4789,0086,-4.95,-0.70,5.0000,262.0000
1982-08-14 03:30:00 UTC,2445195.645833,29.6650,-93.4789,0086,-8.00,-0.00,8.0000,270.0000
1982-08-14 04:00:00 UTC,2445195.666667,29.6650,-93.4789,0086,-9.98,0.70,10.0000,274.0000
1982-08-14 04:30:00 UTC,2445195.687500,29.6650,-93.4789,0086,-9.98,0.70,10.0000,274.0000
1982-08-14 05:00:00 UTC,2445195.708333,29.6650,-93.4789,0086,-7.98,0.56,8.0000,274.0000
1982-08-14 05:30:00 UTC,2445195.729167,29.6650,-93.4789,0086,-5.99,0.31,6.0000,273.0000
1982-08-14 06:00:00 UTC,2445195.750000,29.6650,-93.4789,0086,-3.95,0.63,4.0000,279.0000
1982-08-14 06:30:00 UTC,2445195.770833,29.6650,-93.4789,0086,-2.52,1.63,3.0000,303.0000
1982-08-14 07:00:00 UTC,2445195.791667,29.6650,-93.4789,0086,-2.30,1.93,3.0000,310.0000
1982-08-14 07:30:00 UTC,2445195.812500,29.6650,-93.4789,0086,-3.46,2.00,4.0000,300.0000
1982-08-14 08:00:00 UTC,2445195.833333,29.6650,-93.4789,0086,-3.88,0.97,4.0000,284.0000
1982-08-14 08:30:00 UTC,2445195.854167,29.6650,-93.4789,0086,-3.93,0.76,4.0000,281.0000
1982-08-14 09:00:00 UTC,2445195.875000,29.6650,-93.4789,0086,-4.46,2.27,5.0000,297.0000
1982-08-14 09:30:00 UTC,2445195.895833,29.6650,-93.4789,0086,-3.35,2.18,4.0000,303.0000
1982-08-14 10:00:00 UTC,2445195.916667,29.6650,-93.4789,0086,-3.77,3.28,5.0000,311.0000
1982-08-14 10:30:00 UTC,2445195.937500,29.6650,-93.4789,0086,-3.86,4.60,6.0000,320.0000
1982-08-14 11:00:00 UTC,2445195.958333,29.6650,-93.4789,0086,-3.00,5.20,6.0000,330.0000
1982-08-14 11:30:00 UTC,2445195.979167,29.6650,-93.4789,0086,-1.17,3.83,4.0000,343.0000
1982-08-14 12:00:00 UTC,2445196.000000,29.6650,-93.4789,0086,-0.63,3.95,4.0000,351.0000
1982-08-14 12:30:00 UTC,2445196.020833,29.6650,-93.4789,0086,-0.76,3.93,4.0000,349.0000
1982-08-14 13:00:00 UTC,2445196.041667,29.6650,-93.4789,0086,-0.76,3.93,4.0000,349.0000
1982-08-14 13:30:00 UTC,2445196.062500,29.6650,-93.4789,0086,-1.17,3.83,4.0000,343.0000
1982-08-14 14:00:00 UTC,2445196.083333,29.6650,-93.4789,0086,-2.27,4.46,5.0000,333.0000
1982-08-14 14:30:00 UTC,2445196.104167,29.6650,-93.4789,0086,-1.69,3.63,4.0000,335.0000
1982-08-14 15:00:00 UTC,2445196.125000,29.6650,-93.4789,0086,0.07,2.00,2.0000,2.0000
1982-08-14 15:30:00 UTC,2445196.145833,29.6650,-93.4789,0086,0.94,0.34,1.0000,70.0000
1982-08-14 16:00:00 UTC,2445196.166667,29.6650,-93.4789,0086,-0.99,-0.10,1.0000,264.0000
1982-08-14 16:30:00 UTC,2445196.187500,29.6650,-93.4789,0086,-2.84,-0.98,3.0000,251.0000
1982-08-14 17:00:00 UTC,2445196.208333,29.6650,-93.4789,0086,-2.65,-1.41,3.0000,242.0000
1982-08-14 17:30:00 UTC,2445196.229167,29.6650,-93.4789,0086,-1.80,-0.88,2.0000,244.0000
1982-08-14 18:00:00 UTC,2445196.250000,29.6650,-93.4789,0086,-1.77,-0.94,2.0000,242.0000
1982-08-14 18:30:00 UTC,2445196.270833,29.6650,-93.4789,0086,-2.60,-1.50,3.0000,240.0000
1982-08-14 19:00:00 UTC,2445196.291667,29.6650,-93.4789,0086,-2.74,-1.22,3.0000,246.0000
1982-08-14 19:30:00 UTC,2445196.312500,29.6650,-93.4789,0086,-2.85,-0.93,3.0000,252.0000
1982-08-14 20:00:00 UTC,2445196.333333,29.6650,-93.4789,0086,-2.96,-0.47,3.0000,261.0000
1982-08-14 20:30:00 UTC,2445196.354167,29.6650,-93.4789,0086,-2.99,-0.26,3.0000,265.0000
1982-08-14 21:00:00 UTC,2445196.375000,29.6650,-93.4789,0086,-1.98,-0.31,2.0000,261.0000
1982-08-14 21:30:00 UTC,2445196.395833,29.6650,-93.4789,0086,-1.99,-0.17,2.0000,265.0000
1982-08-14 22:00:00 UTC,2445196.416667,29.6650,-93.4789,0086,-1.88,0.68,2.0000,290.0000
1982-08-14 22:30:00 UTC,2445196.437500,29.6650,-93.4789,0086,-1.49,1.34,2.0000,312.0000
1982-08-14 23:00:00 UTC,2445196.458333,29.6650,-93.4789,0086,-2.46,1.72,3.0000,305.0000
1982-08-14 23:30:00 UTC,2445196.479167,29.6650,-93.4789,0086,-2.54,1.59,3.0000,302.0000
1982-08-15 00:00:00 UTC,2445196.500000,29.6650,-93.4789,0086,-1.18,1.62,2.0000,324.0000
1982-08-15 00:30:00 UTC,2445196.520833,29.6650,-93.4789,0086,-2.08,2.16,3.0000,316.0000
1982-08-15 01:00:00 UTC,2445196.541667,29.6650,-93.4789,0086,-2.67,1.36,3.0000,297.0000
1982-08-15 01:30:00 UTC,2445196.562500,29.6650,-93.4789,0086,-1.68,1.09,2.0000,303.0000
1982-08-15 02:00:00 UTC,2445196.583333,29.6650,-93.4789,0086,-1.41,1.41,2.0000,315.0000
1982-08-15 02:30:00 UTC,2445196.604167,29.6650,-93.4789,0086,-3.85,1.10,4.0000,286.0000
1982-08-15 03:00:00 UTC,2445196.625000,29.6650,-93.4789,0086,-6.87,1.34,7.0000,281.0000
1982-08-15 03:30:00 UTC,2445196.645833,29.6650,-93.4789,0086,-7.83,1.66,8.0000,282.0000
1982-08-15 04:00:00 UTC,2445196.666667,29.6650,-93.4789,0086,-7.76,1.94,8.0000,284.0000
1982-08-15 04:30:00 UTC,2445196.687500,29.6650,-93.4789,0086,-6.62,2.28,7.0000,289.0000
1982-08-15 05:00:00 UTC,2445196.708333,29.6650,-93.4789,0086,-6.00,3.61,7.0000,301.0000
1982-08-15 05:30:00 UTC,2445196.729167,29.6650,-93.4789,0086,-6.39,4.81,8.0000,307.0000
1982-08-15 06:00:00 UTC,2445196.750000,29.6650,-93.4789,0086,-6.86,4.12,8.0000,301.0000
1982-08-15 06:30:00 UTC,2445196.770833,29.6650,-93.4789,0086,-5.80,1.55,6.0000,285.0000
1982-08-15 07:00:00 UTC,2445196.791667,29.6650,-93.4789,0086,-0.91,-0.42,1.0000,245.0000
1982-08-15 07:30:00 UTC,2445196.812500,29.6650,-93.4789,0086,0.71,-0.71,1.0000,135.0000
1982-08-15 08:00:00 UTC,2445196.833333,29.6650,-93.4789,0086,-0.73,-0.68,1.0000,227.0000
1982-08-15 08:30:00 UTC,2445196.854167,29.6650,-93.4789,0086,-1.00,-0.03,1.0000,268.0000
1982-08-15 09:00:00 UTC,2445196.875000,29.6650,-93.4789,0086,-1.98,-0.28,2.0000,262.0000
1982-08-15 09:30:00 UTC,2445196.895833,29.6650,-93.4789,0086,-3.53,-1.88,4.0000,242.0000
1982-08-15 10:00:00 UTC,2445196.916667,29.6650,-93.4789,0086,-4.19,-2.72,5.0000,237.0000
1982-08-15 10:30:00 UTC,2445196.937500,29.6650,-93.4789,0086,-3.65,-1.63,4.0000,246.0000
1982-08-15 11:00:00 UTC,2445196.958333,29.6650,-93.4789,0086,-3.95,-0.63,4.0000,261.0000
1982-08-15 11:30:00 UTC,2445196.979167,29.6650,-93.4789,0086,-4.00,-0.14,4.0000,268.0000
1982-08-15 12:00:00 UTC,2445197.000000,29.6650,-93.4789,0086,-4.00,-0.00,4.0000,270.0000
1982-08-15 12:30:00 UTC,2445197.020833,29.6650,-93.4789,0086,-3.99,0.28,4.0000,274.0000
1982-08-15 13:00:00 UTC,2445197.041667,29.6650,-93.4789,0086,-4.95,0.70,5.0000,278.0000
1982-08-15 13:30:00 UTC,2445197.062500,29.6650,-93.4789,0086,-4.81,1.38,5.0000,286.0000
1982-08-15 14:00:00 UTC,2445197.083333,29.6650,-93.4789,0086,-1.62,1.18,2.0000,306.0000
1982-08-15 14:30:00 UTC,2445197.104167,29.6650,-93.4789,0086,-0.58,1.91,2.0000,343.0000
1982-08-15 15:00:00 UTC,2445197.125000,29.6650,-93.4789,0086,-2.08,2.16,3.0000,316.0000
1982-08-15 15:30:00 UTC,2445197.145833,29.6650,-93.4789,0086,-3.50,1.94,4.0000,299.0000
1982-08-15 16:00:00 UTC,2445197.166667,29.6650,-93.4789,0086,-3.88,0.97,4.0000,284.0000
1982-08-15 16:30:00 UTC,2445197.187500,29.6650,-93.4789,0086,-3.00,0.05,3.0000,271.0000
1982-08-15 17:00:00 UTC,2445197.208333,29.6650,-93.4789,0086,-2.97,-0.42,3.0000,262.0000
1982-08-15 17:30:00 UTC,2445197.229167,29.6650,-93.4789,0086,-2.80,-1.08,3.0000,249.0000
1982-08-15 18:00:00 UTC,2445197.250000,29.6650,-93.4789,0086,-2.87,-0.88,3.0000,253.0000
1982-08-15 18:30:00 UTC,2445197.270833,29.6650,-93.4789,0086,-3.00,-0.05,3.0000,269.0000
1982-08-15 19:00:00 UTC,2445197.291667,29.6650,-93.4789,0086,-3.00,-0.00,3.0000,270.0000
1982-08-15 19:30:00 UTC,2445197.312500,29.6650,-93.4789,0086,-2.88,-0.83,3.0000,254.0000
1982-08-15 20:00:00 UTC,2445197.333333,29.6650,-93.4789,0086,-3.78,-1.30,4.0000,251.0000
1982-08-15 20:30:00 UTC,2445197.354167,29.6650,-93.4789,0086,-2.85,-0.93,3.0000,252.0000
1982-08-15 21:00:00 UTC,2445197.375000,29.6650,-93.4789,0086,-1.41,-1.41,2.0000,225.0000
1982-08-15 21:30:00 UTC,2445197.395833,29.6650,-93.4789,0086,-0.21,-1.99,2.0000,186.0000
1982-08-15 22:00:00 UTC,2445197.416667,29.6650,-93.4789,0086,-0.42,-0.91,1.0000,205.0000
1982-08-15 22:30:00 UTC,2445197.437500,29.6650,-93.4789,0086,-0.67,0.74,1.0000,318.0000
1982-08-15 23:00:00 UTC,2445197.458333,29.6650,-93.4789,0086,-1.12,1.66,2.0000,326.0000
1982-08-15 23:30:00 UTC,2445197.479167,29.6650,-93.4789,0086,-2.52,1.63,3.0000,303.0000
1982-08-16 00:00:00 UTC,2445197.500000,29.6650,-93.4789,0086,-3.50,1.94,4.0000,299.0000
1982-08-16 00:30:00 UTC,2445197.520833,29.6650,-93.4789,0086,-3.15,2.46,4.0000,308.0000
1982-08-16 01:00:00 UTC,2445197.541667,29.6650,-93.4789,0086,-1.63,2.52,3.0000,327.0000
1982-08-16 01:30:00 UTC,2445197.562500,29.6650,-93.4789,0086,-1.17,2.76,3.0000,337.0000
1982-08-16 02:00:00 UTC,2445197.583333,29.6650,-93.4789,0086,-3.72,3.35,5.0000,312.0000
1982-08-16 02:30:00 UTC,2445197.604167,29.6650,-93.4789,0086,-4.49,2.19,5.0000,296.0000
1982-08-16 03:00:00 UTC,2445197.625000,29.6650,-93.4789,0086,-4.70,1.71,5.0000,290.0000
1982-08-16 03:30:00 UTC,2445197.645833,29.6650,-93.4789,0086,-4.87,1.12,5.0000,283.0000
1982-08-16 04:00:00 UTC,2445197.666667,29.6650,-93.4789,0086,-6.93,0.97,7.0000,278.0000
1982-08-16 04:30:00 UTC,2445197.687500,29.6650,-93.4789,0086,-7.92,1.11,8.0000,278.0000
1982-08-16 05:00:00 UTC,2445197.708333,29.6650,-93.4789,0086,-7.90,1.25,8.0000,279.0000
1982-08-16 05:30:00 UTC,2445197.729167,29.6650,-93.4789,0086,-7.97,0.70,8.0000,275.0000
1982-08-16 06:00:00 UTC,2445197.750000,29.6650,-93.4789,0086,-6.95,-0.85,7.0000,263.0000
1982-08-16 06:30:00 UTC,2445197.770833,29.6650,-93.4789,0086,-6.79,-1.69,7.0000,256.0000
1982-08-16 07:00:00 UTC,2445197.791667,29.6650,-93.4789,0086,-6.89,-1.22,7.0000,260.0000
1982-08-16 07:30:00 UTC,2445197.812500,29.6650,-93.4789,0086,-6.79,-1.69,7.0000,256.0000
1982-08-16 08:00:00 UTC,2445197.833333,29.6650,-93.4789,0086,-6.62,-2.28,7.0000,251.0000
1982-08-16 08:30:00 UTC,2445197.854167,29.6650,-93.4789,0086,-5.30,-2.82,6.0000,242.0000
1982-08-16 09:00:00 UTC,2445197.875000,29.6650,-93.4789,0086,-3.11,-2.52,4.0000,231.0000